Погода в Троицке

Россия / Челябинская область     54°04′59″N   61°33′35″E
темп.,
°C
ветер,
м/с
пор.,
м/с
влажн.,
%
обл.,
%
осадки,
мм/ч
давл.,
гПа
погр.,
м
8 марта, пн
пн823:00−15сз5109062 0.3 1009188
02:00−18зсз45880 0.0 101175
05:00−19з34850 0.0 101325
08:00−19юз448729 0.0 101352
11:00−13ююз6108865 0.0 1013350
14:00−8ююз91487100 0.2 1010853
17:00−6юз81582100 0.3 10091075
20:00−6юз9188197 0.0 1008684
9 марта, вт
вт923:00−6юз8178389 0.0 1010539
02:00−6юз7148697 0.0 1010468
05:00−6ююз8158799 0.0 1009616
08:00−6юз81686100 0.0 1007642
11:00−5юз91684100 0.0 1008700
14:00−3зюз8128383 0.0 1009984
17:00−4зюз378192 0.0 1011157
20:00−7юз3487100 0.0 101233
10 марта, ср
ср1023:00−8ююз2292100 0.0 101222
02:00−9ююв2294100 0.0 101021
05:00−9юв3496100 0.2 100884
08:00−7юв4896100 0.7 1005276
11:00−5юв4795100 1.6 1003364
14:00−3юв5796100 1.1 1000488
17:00−3ююз5896100 2.6 998595
20:00−11ююз498463 0.3 998167
11 марта, чт
чт1123:00−14ююз589254 0.3 998183
02:00−17сз3498100 0.1 99952
05:00−13ссз81493100 0.3 1002652
08:00−15ссз81294100 0.8 1005710
11:00−15ссз71192100 1.3 1009707
14:00−13ссз61080100 0.3 1012745
17:00−13зсз488381 0.3 1014290
20:00−18зсз34860 0.0 101728
12 марта, пт
пт1223:00−20зсз46840 0.0 101973
02:00−20з448592 0.0 102173
05:00−20зюз478480 0.0 1021105
08:00−20зюз478768 0.0 102399
11:00−14з478437 0.0 1024243
14:00−11з47820 0.0 1024631
17:00−11зюз338818 0.0 102462
20:00−15сз23840 0.0 102620